Location: Unspecified
(0.0000°N, 0.0000°E)
Time: 13:26:35
(UTC+00:00)

Envisat - Pass Details

Date: 13 June 2021
Orbit: 764 x 766 km, 98.1° (Epoch: 18 June)

Event Time Altitude Azimuth Distance (km) Brightness Sun altitude
Rises 05:17:42 0° 3° (N) 3,213 6.6 -9.7°
Reaches altitude 10° 05:20:02 10° 358° (N) 2,290 5.8 -9.2°
Maximum altitude 05:24:56 53° 282° (WNW) 930 3.2 -8.1°
Drops below altitude 10° 05:29:53 10° 205° (SSW) 2,300 5.0 -6.9°
Sets 05:32:14 0° 201° (SSW) 3,229 5.8 -6.4°
